Location: Turicum
(47.3667°N, 8.5500°E)
Time: 06:26:30
(UTC+00:00)

Daily predictions for brighter satellites

Satellite Brightness Start Highest point End
(mag) Time Altitude Azimuth Time Altitude Azimuth Time Altitude Azimuth
USA 238 DEB 3.9 19:00:00 10° S 19:06:15 47° ESE 19:12:45 10° NE
USA 238 3.9 19:00:07 10° S 19:06:21 47° ESE 19:12:51 10° NE
IRIDIUM 114 4.3 19:02:22 10° S 19:07:33 73° E 19:12:46 10° N
MOS 1 Rocket 3.8 19:02:47 10° N 19:08:14 83° WNW 19:13:28 10° SSW
Cosmos 1867 3.6 19:02:57 10° SSW 19:08:19 68° ESE 19:13:46 10° NE
CENTAUR R/B 3.2 19:05:09 10° S 19:10:09 30° ESE 19:15:51 10° NE
Cosmos 1666 Rocket 3.8 19:06:20 10° SSE 19:10:29 48° E 19:14:41 10° NNE
Cosmos 1954 Rocket 4.3 19:08:03 10° S 19:13:08 49° ESE 19:18:15 10° NNE
DMSP B5D2-2 4.2 19:09:25 10° NNE 19:14:36 59° E 19:19:46 10° S
IRIDIUM 103 4.4 19:11:28 10° S 19:16:41 86° E 19:21:56 10° N
FREGAT/IRIS 2.8 19:14:35 10° S 19:17:11 61° W 19:19:48 10° NNW
Cosmos 1821 Rocket 4.0 19:11:48 10° S 19:17:58 82° E 19:24:17 10° N
Ariane Rocket 3.4 19:13:13 10° S 19:18:15 70° WSW 19:23:19 10° NNW
Cosmos 405 Rocket 4.2 19:15:51 10° SE 19:18:28 18° E 19:21:08 10° NE
Intercosmos 25 3.0 19:15:08 10° N 19:18:54 88° WSW 19:22:03 10° S
Cosmos 1812 3.5 19:16:37 10° NNW 19:20:23 55° W 19:24:09 10° S
Cosmos 1805 Rocket 4.1 19:16:40 10° SSW 19:21:05 66° W 19:25:33 10° N
Cosmos 407 Rocket 3.9 19:18:12 10° SSW 19:23:31 71° WNW 19:28:47 10° NNE
SJ-6B 3.3 19:22:14 10° S 19:26:13 64° WSW 19:30:09 10° NNW
Cosmos 2333 Rocket 4.4 19:25:17 10° N 19:27:38 12° NNE 19:29:58 10° NE
Cosmos 1190 Rocket 4.2 19:22:24 10° SSW 19:27:42 79° WNW 19:33:03 10° NNE
NOSS 2 (A) 4.1 19:25:42 10° NW 19:28:16 72° SW 19:30:20 12° SSE
Cosmos 1763 Rocket 4.3 19:23:39 10° N 19:28:38 38° ENE 19:33:12 12° SE
deb Kosmos-1763 4.2 19:25:20 10° SSW 19:28:57 80° WNW 19:32:38 10° NNE
Cosmos 1140 Rocket 3.7 19:24:17 10° SSW 19:29:31 79° WNW 19:34:49 10° NNE
Cosmos 1437 Rocket 4.3 19:26:52 10° NNE 19:29:37 19° ENE 19:31:55 12° ESE
FALCON 9 DEB 4.3 19:27:08 10° W 19:30:31 45° NNW 19:33:54 10° ENE
Resurs 1-3 3.6 19:26:56 10° SSE 19:31:17 74° ENE 19:35:41 10° N
OBJECT-B 0.8 19:30:36 10° SSE 19:33:54 86° ENE 19:37:12 10° NNW
Cosmos 2084 Rocket 4.1 19:31:18 10° S 19:35:01 32° ESE 19:38:49 10° ENE
Cosmos 1633 Rocket 3.0 19:32:54 10° S 19:37:19 77° E 19:41:44 10° NNE
Cosmos 1184 Rocket 2.8 19:34:55 10° S 19:38:11 61° E 19:41:27 10° NNE
Cosmos 921 Rocket 2.9 19:37:01 10° NNW 19:41:14 72° ENE 19:45:04 12° SSE
Cosmos 2123 Rocket 4.0 19:36:10 10° N 19:42:26 83° E 19:48:43 10° S
Cosmos 1535 Rocket 4.4 19:37:40 10° S 19:43:45 75° E 19:49:51 10° NNE
MetOp-B 4.5 19:40:52 12° SE 19:45:39 50° ENE 19:50:49 10° N
Meteor 1-27 Rocket 4.5 19:41:53 10° NNW 19:47:43 58° W 19:53:30 10° S
Cosmos 1605 Rocket 4.0 19:46:14 10° S 19:52:12 59° E 19:58:10 10° NNE
Okean 1 3.8 19:49:38 10° N 19:53:32 44° ENE 19:56:09 19° SE
CZ-2C R/B 3.1 19:49:04 10° N 19:54:12 62° WNW 19:59:23 10° SSW
NOSS 3-2 (A) 3.4 19:50:35 10° SW 19:56:19 88° NW 20:02:55 10° NE
USA 267 3.8 19:52:06 10° ENE 19:57:55 33° SE 20:03:42 10° SSW
Cosmos 2219 Rocket 4.3 19:54:52 10° N 19:58:15 16° NE 20:01:38 10° ENE
Cosmos 540 Rocket 4.3 19:56:45 10° N 20:01:34 37° ENE 20:04:39 20° ESE
SL-16 R/B 2.3 19:56:51 10° NNW 20:02:30 63° ENE 20:06:27 20° SE
SL-4 R/B 2.9 19:59:33 10° W 20:03:25 45° N 20:07:00 10° ENE
BREEZE-M DEB (TANK) 2.7 20:01:37 10° W 20:04:17 68° N 20:11:02 10° E
SL-27 R/B 2.9 20:04:28 25° SSE 20:05:44 35° ESE 20:08:47 10° NE
Cosmos 2242 Rocket 3.6 20:01:49 10° N 20:06:13 63° ENE 20:09:08 20° SSE
NOSS 3-2 (C) 3.3 20:01:18 10° SSW 20:06:58 72° SE 20:13:29 10° NE
Cosmos 1470 Rocket 3.5 20:02:44 10° S 20:07:08 88° E 20:11:31 10° N
Cosmos 2082 Rocket 3.4 20:06:10 10° SW 20:11:38 46° NW 20:17:06 10° NNE
BREEZE-M DEB (TANK) 2.1 20:09:17 10° WNW 20:11:50 54° N 20:12:31 32° ENE
ERS-1 Rocket 3.6 20:16:14 24° ESE 20:18:45 41° ENE 20:23:27 10° N
Meteor 1-14 Rocket 4.4 20:13:20 11° S 20:18:56 60° E 20:24:50 10° NNE
Cosmos 2322 Rocket 2.3 20:14:09 10° NNW 20:19:51 69° ENE 20:23:15 25° SE
Cosmos 1850 Rocket 3.9 20:18:41 10° SSW 20:23:58 78° ESE 20:29:15 10° NNE
Meteor 1-25 Rocket 4.4 20:20:11 10° SSW 20:25:45 75° WNW 20:31:26 10° N
Cosmos 1500 3.8 20:25:36 33° ESE 20:26:01 34° E 20:29:26 10° NNE
SPOT 1/Viking Rocket 3.6 20:23:32 25° SSE 20:26:38 69° ENE 20:31:51 10° N
Cosmos 841 Rocket 3.6 20:22:07 10° NNW 20:27:20 61° ENE 20:29:56 29° SE
USA 32 4.3 20:23:11 10° SSW 20:28:23 68° W 20:33:37 10° N
Cosmos 2360 Rocket 2.7 20:23:29 10° NNW 20:28:59 47° NE 20:31:48 26° ESE
Terra 2.8 20:27:55 25° ESE 20:29:39 32° ENE 20:33:53 10° N
USA 276 2.1 20:26:32 10° WNW 20:29:41 65° SSW 20:30:10 54° SSE
Meteor 1-18 Rocket 4.2 20:24:20 10° NNW 20:29:55 82° W 20:33:52 20° S
X-37B 1.6 20:27:28 10° W 20:30:20 32° SSW 20:30:22 32° SSW
Okean 3 4.4 20:27:14 10° N 20:31:08 32° ENE 20:32:07 29° E
IGS 5A 3.4 20:29:39 28° S 20:31:50 85° W 20:36:01 10° NNW
ATLAS 3B R/B 2.9 20:25:59 10° S 20:32:07 43° ESE 20:38:18 10° NE
Cosmos 1238 Rocket 3.1 20:30:32 15° SSW 20:32:45 46° WNW 20:35:43 10° N
USA 234 3.7 20:29:00 16° E 20:34:07 57° NNE 20:40:31 10° NW
Cosmos 1666 4.3 20:37:36 20° ENE 20:37:36 20° ENE 20:39:46 10° NE
Cosmos 1980 Rocket 4.1 20:32:57 10° NW 20:37:24 24° WSW 20:41:47 10° SSW
Cosmos 44 3.4 20:33:19 10° NW 20:38:16 79° SW 20:40:36 33° SSE
Resurs 01 Rocket 3.0 20:34:56 10° SSW 20:38:55 35° W 20:43:00 10° NNW
Iridium 4 Rocket 3.8 20:38:44 32° E 20:39:10 32° E 20:42:53 10° NNE
Lacrosse 5 2.6 20:34:50 10° WNW 20:39:37 42° SW 20:41:50 27° S
Cosmos 1602 4.3 20:37:46 12° SSW 20:41:14 57° WNW 20:45:08 10° N
CARTOSAT-1 3.6 20:40:31 39° SE 20:41:54 61° ENE 20:46:11 10° N
Cosmos 1153 Rocket 4.4 20:36:52 12° S 20:42:42 90° ESE 20:48:56 10° N
GP-B 4.1 20:40:16 10° N 20:44:31 46° W 20:48:37 11° SSW
CZ-4B DEB 4.2 20:46:38 66° ESE 20:46:56 72° ENE 20:50:15 10° N
Cosmos 1933 Rocket 4.4 20:43:27 10° SSW 20:47:45 51° WNW 20:52:07 10° N
Cosmos 2061 Rocket 4.4 20:50:45 33° SE 20:52:51 45° E 20:58:41 10° NNE
Cosmos 405 Rocket 4.3 20:50:49 10° SW 20:54:12 33° WNW 20:57:40 10° N
Spot 2 Rocket 3.9 20:51:17 24° S 20:54:15 58° W 20:59:18 10° NNW
Cosmos 1814 Rocket 3.9 20:49:46 10° NNW 20:55:02 83° ENE 20:56:56 41° SSE
COSMOS 2428 4.0 20:50:18 10° NNW 20:55:19 30° NE 20:57:48 22° E
Cosmos 1802 Rocket 4.1 20:54:58 33° SSE 20:57:48 59° E 21:03:59 10° NNE
Cosmos 1515 4.5 20:54:34 10° NNW 20:58:16 46° W 20:59:36 32° SW
Cosmos 2237 Rocket 4.3 20:55:48 10° N 20:59:16 16° NE 21:02:43 10° ENE
Cosmos 1869 Rocket 3.5 20:57:44 40° S 20:59:20 87° E 21:03:50 10° N
Okean 1-7 3.5 20:55:56 10° NNW 21:00:09 54° W 21:01:51 32° SSW
CENTAUR R/B 3.0 20:54:13 10° SW 21:00:13 64° NW 21:07:25 10° NE
Cosmos 1437 Rocket 4.0 21:02:31 10° NNW 21:06:00 35° W 21:07:19 27° SW
Cosmos 1570 Rocket 4.4 21:07:47 10° NNW 21:13:01 58° WSW 21:14:58 36° SSW
Cosmos 2333 Rocket 2.9 21:07:59 10° NNW 21:13:31 45° NE 21:15:19 35° E
ATLAS 5 CENTAUR R/B 2.3 21:10:57 10° NW 21:13:42 62° NE 21:14:58 43° ESE
Cosmos 1674 Rocket 4.5 21:09:57 10° N 21:13:54 33° ENE 21:13:54 33° ENE
SPOT 5 2.7 21:17:39 53° SSW 21:18:29 68° WSW 21:22:56 10° NNW
Cosmos 1066 Rocket 4.4 21:14:49 10° N 21:20:23 55° ENE 21:21:30 47° ESE
Meteor 1-5 Rocket 4.3 21:18:35 30° SSW 21:21:43 82° WNW 21:27:39 10° N
Cosmos 2208 Rocket 4.4 21:19:24 10° NNW 21:24:31 55° WSW 21:25:58 41° SSW
Cosmos 1733 Rocket 3.3 21:29:41 57° ENE 21:29:41 57° ENE 21:33:42 10° NNE
Cosmos 1356 4.3 21:30:28 45° N 21:30:28 45° N 21:32:58 10° N
ERBS 3.9 21:27:22 10° NW 21:30:13 29° NNE 21:30:13 29° NNE
Meteor 1-11 Rocket 3.6 21:31:46 49° S 21:33:25 86° E 21:39:16 10° NNE
Cosmos 968 Rocket 3.9 21:37:25 45° E 21:37:25 45° E 21:41:46 10° NNE
Lacrosse 4 Rocket 1.5 21:37:37 67° NE 21:37:37 67° NE 21:41:17 10° NNE
Tsikada Rocket 3.9 21:30:51 10° N 21:37:12 76° E 21:38:46 53° SSE
ALOS 2 4.4 21:39:37 20° ENE 21:39:41 20° ENE 21:42:51 10° NNE
USA 267 3.2 21:34:48 10° NE 21:41:22 84° NNW 21:47:55 10° WSW
Cosmos 2219 Rocket 2.3 21:37:42 10° NNW 21:43:23 65° ENE 21:44:23 55° ESE
SL-4 R/B 2.6 21:39:42 10° WNW 21:42:58 49° NNW 21:42:58 49° NNW
SL-16 R/B 3.9 21:41:48 10° NW 21:46:08 23° WSW 21:48:20 18° SW
Cosmos 1242 Rocket 3.5 21:48:09 10° NNW 21:50:53 47° NNW 21:50:53 47° NNW
Meteor 1-23 Rocket 4.2 21:50:28 10° NNW 21:56:19 83° W 21:57:14 64° S
Cosmos 2322 3.6 21:51:06 10° NNW 21:56:46 75° WSW 21:57:25 66° SSW
Cosmos 1725 Rocket 4.1 21:55:17 46° SSW 21:57:19 76° W 22:03:41 10° N
ERS-1 Rocket 4.4 21:56:14 25° WSW 21:57:39 29° W 22:02:00 10° NW
Spot 4 4.1 21:58:19 55° ENE 21:58:19 55° ENE 22:02:59 10° N
Cosmos 1833 4.5 21:58:11 33° SW 22:00:45 64° WNW 22:06:24 10° NNE
Cosmos 836 Rocket 4.3 21:56:48 10° NNW 22:02:02 86° WSW 22:02:12 83° SSW
Cosmos 1536 3.6 22:03:04 47° WNW 22:03:04 47° WNW 22:06:36 10° N
Cosmos 2322 Rocket 4.0 21:59:14 10° NW 22:03:19 21° W 22:05:03 18° SW
Cosmos 2016 Rocket 4.5 22:02:20 33° SW 22:05:04 57° WNW 22:11:22 10° N
Cosmos 1378 Rocket 3.8 22:00:57 10° N 22:04:52 68° N 22:04:52 68° N
Terra 2.9 22:06:49 32° WSW 22:07:21 33° W 22:11:40 10° NNW
Cosmos 2333 4.4 22:05:57 10° NW 22:11:38 58° WSW 22:12:06 56° SW
COSMOS 2487 4.3 22:12:28 29° NNW 22:12:28 29° NNW 22:14:50 10° N
Cosmos 1666 4.3 22:12:27 29° WNW 22:12:27 29° WNW 22:15:38 10° N
Cosmos 2360 Rocket 3.3 22:07:52 10° NW 22:12:47 31° WSW 22:13:33 30° WSW
SL-16 R/B 4.2 22:10:43 10° N 22:15:01 21° NE 22:17:41 16° ENE
USA 234 3.2 22:16:20 57° S 22:17:08 61° SW 22:23:37 10° WNW
MOS 1-B Rocket 3.8 22:16:49 10° NNE 22:22:26 81° WNW 22:23:10 68° SW
ATLAS 3B R/B 3.4 22:16:20 10° WSW 22:22:44 50° NW 22:29:13 10° NE
Cosmos 1354 Rocket 4.2 22:23:58 63° ENE 22:23:58 63° ENE 22:28:40 10° NNE
Cosmos 1975 Rocket 4.0 22:23:48 10° N 22:27:17 44° NE 22:27:17 44° NE
Cosmos 2297 Rocket 3.5 22:32:12 26° ENE 22:32:12 26° ENE 22:35:35 10° NE
Meteor 1-21 4.3 22:27:05 10° N 22:32:51 64° ENE 22:33:00 64° E
Cosmos 1743 4.2 22:35:20 37° NNW 22:35:20 37° NNW 22:37:58 10° N
Cosmos 1975 4.3 22:36:14 34° NNE 22:36:14 34° NNE 22:38:39 10° NNE
Meteor 2-9 Rocket 4.4 22:35:06 60° E 22:35:06 60° E 22:40:29 10° NNE
Thor Agena Rocket 3.5 22:30:17 10° NNE 22:35:03 77° NNE 22:35:03 77° NNE
Cosmos 2233 Rocket 4.3 22:34:08 50° SW 22:35:32 62° WNW 22:41:49 10° N
Okean 2 4.4 22:31:37 10° N 22:34:30 44° N 22:34:30 44° N
Cosmos 1980 3.8 22:31:01 10° NNW 22:36:42 64° ENE 22:36:58 63° ENE
Timation 2 Rocket 4.1 22:39:51 57° E 22:39:51 57° E 22:45:14 10° NE
COSMOS 2428 3.0 22:34:18 10° NW 22:39:48 56° WSW 22:39:48 56° WSW
Cosmos 44 Rocket 4.2 22:39:12 10° NW 22:42:56 41° W 22:42:56 41° W
Cosmos 2237 Rocket 2.2 22:38:48 10° NNW 22:44:28 68° ENE 22:44:34 68° ENE
Cosmos 2219 4.0 22:46:31 39° ENE 22:46:31 39° ENE 22:50:39 10° NE
Cosmos 1464 Rocket 3.9 22:46:12 67° ESE 22:46:20 67° E 22:52:28 10° NNE
NOSS 0 Rocket 3.8 22:45:24 10° NNW 22:51:40 77° WSW 22:51:50 76° SW
Nadezhda 4 Rocket 4.1 22:48:18 10° N 22:54:31 61° ENE 22:54:56 59° E
Geosat 4.5 22:58:12 53° WNW 22:58:12 53° WNW 23:02:23 10° NW
Cosmos 2333 Rocket 3.3 22:52:32 10° NW 22:57:19 34° W 22:57:19 34° W
Cosmos 1503 Rocket 4.4 22:58:15 55° WNW 22:58:33 56° WNW 23:03:50 10° NNE
Cosmos 1513 Rocket 4.4 23:07:07 77° SW 23:07:35 84° W 23:14:03 10° N
DNEPR-1 R/B 4.2 23:09:31 10° NW 23:14:43 69° NNW 23:14:43 69° NNW
ALOS 2 3.8 23:17:00 37° NW 23:17:00 37° NW 23:19:58 10° NNW
Cosmos 1092 Rocket 4.2 23:10:10 10° N 23:16:17 56° ENE 23:16:44 54° E
Lacrosse 4 Rocket 4.1 23:13:52 11° WNW 23:16:20 16° NW 23:18:57 10° N
Helios 1A 4.1 23:18:09 42° N 23:18:09 42° N 23:21:03 10° N
Cosmos 2034 Rocket 3.8 23:19:27 82° SE 23:19:40 85° E 23:26:03 10° N
Cosmos 2227 Rocket 2.5 23:21:59 56° ENE 23:21:59 56° ENE 23:26:48 10° NNE
USA 267 4.3 23:17:53 10° NE 23:24:00 44° NNW 23:30:08 10° W
Cosmos 2219 Rocket 3.9 23:22:34 10° NW 23:26:05 22° W 23:26:05 22° W
Meteor 1-12 Rocket 4.3 23:28:42 80° E 23:28:42 80° E 23:34:40 10° NNE
Resurs 1-4 Rocket 4.4 23:33:05 10° ENE 23:35:11 12° E 23:35:32 12° E
Cosmos 1538 Rocket 4.5 23:31:27 10° NNW 23:35:35 53° NW 23:35:35 53° NW
Cosmos 158 Rocket 4.4 23:41:13 10° NNW 23:46:33 57° ENE 23:46:39 56° ENE
Cosmos 1607 3.9 23:40:53 10° NW 23:47:21 81° SW 23:47:26 81° SW
Cosmos 2082 4.0 23:48:47 54° E 23:48:47 54° E 23:53:38 10° NNE
Cosmos 1375 Rocket 4.4 23:48:19 78° SSE 23:48:31 79° ESE 23:55:09 10° NE
USA 229 DEB 4.2 23:53:16 40° ESE 23:53:16 40° ESE 23:59:12 10° NE
USA 229 4.3 23:53:24 40° ESE 23:53:24 40° ESE 23:59:17 10° NE
Helios 1B rocket 3.9 23:51:49 10° NNE 23:54:18 32° NE 23:54:18 32° NE
